Location: Jablonec nad Nisou
(50.7170°N, 15.1830°E)
Time: 08:35:49
(UTC+02:00)

ISS - Pass Details

Date: 24 March 2019
Orbit: 408 x 410 km, 51.6° (Epoch: 21 April)

Event Time Altitude Azimuth Distance (km) Brightness Sun altitude
Rises 21:03:52 0° 261° (W) 2,333 0.6 -25.0°
Reaches altitude 10° 21:05:57 10° 263° (W) 1,472 -0.5 -25.3°
Enters shadow 21:07:09 21° 265° (W) 992 -1.4 -25.4°
